CARTOSAT 2C

导读

CARTOSAT 2C(Cartosat-2C)是印度空间研究组织运营的地球观测卫星,属于Cartosat系列卫星的第五颗航天器,于2016年6月22日在萨迪什·达万航天中心通过PSLV火箭发射入轨,运行于太阳同步轨道。卫星搭载0.6米分辨率全色相机与多光谱成像仪,数据可支撑制图、城乡规划、灾害监测、资源勘探与军事地理信息应用。

Basic Information
目录编号:
41599
目录名称:
CARTOSAT 2C
国际标识:
2016-040A
轨道中心:
EARTH
卫星名称:
CARTOSAT 2C
卫星全名:
--
卫星状态:
在轨 (已飞行3727 天)
发射日期:
2016-06-22 UTC
国别 :
印度 (IN)
星等 :
--
Orbit Information
数据来源 国际轨道数据
星历时间: 2026-09-05T14:47:31+0800
9小时前
查看轨道信息
半长轴: 6886.348km
偏心率: 0.000818
轨道倾角: 97.441°
近地点辐角 206.241°
升交点赤经 307.124°
平近点角 153.841°
近地点: 502.577km
远地点: 513.845km
周期: 94.786分钟
每日圈数: 15.192155
Detailed Information
使用方式:
暂无
2D Orbit Map
3D Orbit Map
Orbit Altitude Analysis Chart
Orbit Inclination Analysis Chart
Orbit Comprehensive Analysis Chart
View Comprehensive Chart
Conjunction Data List
Event ID Objects TCA Miss Dist (km) Collision Risk Probability Collision Risk Index (CRI) Action
CDM_260908-044604-159906-845621
2026-09-08T
04:46:49+0000
1.518 km
极远距离
5.501301E-6 低风险 0.5
CDM_260907-174604-159906-403221
2026-09-07T
17:46:59+0000
1.770 km
极远距离
2.836399E-6 低风险 0.44
CDM_260906-210604-159906-526023
OBJECT B (65260)
2026-09-06T
21:06:11+0000
2.695 km
极远距离
1.117288E-6 低风险 0.36